CFG7DW LEPA-EDDF

Flight info

Callsign CFG7DW
Flight time 2h 28m
Altitude 36000
Route ISTER DCT LUNOR DCT NESUL DCT NEGAT DCT OMEDA DCT RAPUR DCT TORTU DCT ERTEV DCT TAGIP DCT BRENO DCT KONIN DCT ERNAS T161 DEBHI DEBHI1A
Aircraft A320/M-SDE1FGHIJ1LORVWYZ/S

Departure

Time 2026-04-18 08:27
Airport Palma de Mallorca Airport (LEPA)

Arrival

Time 2026-04-18 10:55
Airport Frankfurt Main Airport (EDDF)
Time Latitude Longitude Altitude Speed Heading
2026-04-18 07:46 39.55071 2.73588 30 ft 0 kts 163°
2026-04-18 08:18 39.55078 2.73586 30 ft 4 kts 163°
2026-04-18 08:18 39.55103 2.73577 30 ft 4 kts 160°
2026-04-18 08:18 39.55116 2.73563 30 ft 4 kts 77°
2026-04-18 08:18 39.55108 2.73539 30 ft 4 kts 59°
2026-04-18 08:19 39.55101 2.73525 30 ft 0 kts 59°
2026-04-18 08:21 39.55104 2.73531 30 ft 3 kts 59°
2026-04-18 08:21 39.55127 2.73580 30 ft 10 kts 59°
2026-04-18 08:21 39.55171 2.73674 30 ft 12 kts 58°
2026-04-18 08:22 39.55169 2.73748 30 ft 7 kts 125°
2026-04-18 08:22 39.55179 2.73808 30 ft 8 kts 61°
2026-04-18 08:22 39.55234 2.73809 30 ft 10 kts 330°
2026-04-18 08:22 39.55296 2.73759 30 ft 11 kts 329°
2026-04-18 08:23 39.55364 2.73705 30 ft 12 kts 329°
2026-04-18 08:23 39.55443 2.73644 30 ft 14 kts 329°
2026-04-18 08:23 39.55533 2.73572 30 ft 16 kts 328°
2026-04-18 08:23 39.55614 2.73509 30 ft 11 kts 330°
2026-04-18 08:24 39.55670 2.73531 30 ft 10 kts 54°
2026-04-18 08:24 39.55714 2.73624 30 ft 15 kts 58°
2026-04-18 08:24 39.55775 2.73753 30 ft 18 kts 58°
2026-04-18 08:24 39.55842 2.73896 30 ft 19 kts 58°
2026-04-18 08:25 39.55914 2.74047 30 ft 20 kts 58°
2026-04-18 08:25 39.55992 2.74205 30 ft 21 kts 49°
2026-04-18 08:25 39.56114 2.74318 30 ft 22 kts 34°
2026-04-18 08:25 39.56211 2.74366 30 ft 11 kts 339°
2026-04-18 08:26 39.56238 2.74289 30 ft 9 kts 256°
2026-04-18 08:26 39.56200 2.74204 30 ft 20 kts 238°
2026-04-18 08:26 39.55999 2.73776 30 ft 91 kts 238°
2026-04-18 08:26 39.55556 2.72840 30 ft 147 kts 238°
2026-04-18 08:27 39.54956 2.71571 163 ft 179 kts 238°
2026-04-18 08:27 39.54269 2.70122 690 ft 190 kts 238°
2026-04-18 08:27 39.53588 2.68692 1443 ft 189 kts 238°
2026-04-18 08:27 39.52881 2.67203 1893 ft 200 kts 238°
2026-04-18 08:28 39.52134 2.65623 2349 ft 211 kts 238°
2026-04-18 08:28 39.51355 2.63975 2895 ft 217 kts 238°
2026-04-18 08:28 39.50563 2.62306 3573 ft 218 kts 239°
2026-04-18 08:28 39.49669 2.60702 4243 ft 222 kts 226°
2026-04-18 08:29 39.48413 2.59510 4856 ft 228 kts 207°
2026-04-18 08:29 39.46944 2.58670 5441 ft 233 kts 204°
2026-04-18 08:29 39.45438 2.57824 6046 ft 238 kts 204°
2026-04-18 08:29 39.43904 2.56984 6658 ft 242 kts 198°
2026-04-18 08:30 39.42238 2.56776 7225 ft 245 kts 169°
2026-04-18 08:30 39.40666 2.57579 7798 ft 245 kts 141°
2026-04-18 08:30 39.39548 2.59212 8391 ft 243 kts 113°
2026-04-18 08:30 39.39125 2.61291 8976 ft 240 kts 87°
2026-04-18 08:31 39.39234 2.63446 9579 ft 241 kts 82°
2026-04-18 08:31 39.39376 2.65682 9892 ft 261 kts 82°
2026-04-18 08:31 39.39530 2.68122 10147 ft 282 kts 83°
2026-04-18 08:31 39.39689 2.70741 10412 ft 304 kts 83°
2026-04-18 08:32 39.39860 2.73568 10591 ft 327 kts 83°
2026-04-18 08:32 39.40038 2.76590 10900 ft 344 kts 83°
2026-04-18 08:32 39.40216 2.79704 11520 ft 350 kts 83°
2026-04-18 08:32 39.40392 2.82855 12193 ft 353 kts 83°
2026-04-18 08:33 39.40569 2.86038 12855 ft 357 kts 83°
2026-04-18 08:33 39.40686 2.88165 13279 ft 359 kts 83°
2026-04-18 08:33 39.40866 2.91403 13908 ft 362 kts 83°
2026-04-18 08:33 39.41049 2.94665 14508 ft 366 kts 83°
2026-04-18 08:34 39.41295 2.99041 15290 ft 371 kts 83°
2026-04-18 08:34 39.41419 3.01293 15681 ft 373 kts 83°
2026-04-18 08:34 39.41664 3.05746 16422 ft 377 kts 83°
2026-04-18 08:34 39.41789 3.08032 16790 ft 379 kts 83°
2026-04-18 08:35 39.41976 3.11457 17330 ft 383 kts 83°
2026-04-18 08:35 39.42165 3.14904 17864 ft 386 kts 83°
2026-04-18 08:35 39.42354 3.18384 18396 ft 389 kts 83°
2026-04-18 08:35 39.42554 3.21881 18904 ft 391 kts 81°
2026-04-18 08:36 39.43092 3.25329 19385 ft 392 kts 70°
2026-04-18 08:36 39.44112 3.28586 19880 ft 392 kts 60°
2026-04-18 08:36 39.45494 3.31633 20360 ft 394 kts 56°
2026-04-18 08:36 39.46910 3.34680 20847 ft 397 kts 57°
2026-04-18 08:37 39.48333 3.37764 21313 ft 400 kts 57°
2026-04-18 08:37 39.49759 3.40871 21759 ft 403 kts 57°
2026-04-18 08:37 39.51191 3.44002 22173 ft 406 kts 57°
2026-04-18 08:37 39.52616 3.47121 22593 ft 409 kts 57°
2026-04-18 08:38 39.54071 3.50305 23005 ft 412 kts 57°
2026-04-18 08:38 39.55535 3.53509 23406 ft 415 kts 57°
2026-04-18 08:38 39.57010 3.56737 23784 ft 418 kts 57°
2026-04-18 08:38 39.58499 3.59985 24153 ft 420 kts 57°
2026-04-18 08:39 39.59993 3.63251 24515 ft 423 kts 57°
2026-04-18 08:39 39.61496 3.66545 24845 ft 425 kts 57°
2026-04-18 08:39 39.63003 3.69853 25171 ft 428 kts 57°
2026-04-18 08:39 39.64521 3.73191 25498 ft 430 kts 57°
2026-04-18 08:40 39.66047 3.76549 25796 ft 433 kts 57°
2026-04-18 08:40 39.67575 3.79925 26094 ft 435 kts 57°
2026-04-18 08:40 39.69112 3.83323 26392 ft 438 kts 57°
2026-04-18 08:40 39.70660 3.86742 26688 ft 440 kts 57°
2026-04-18 08:41 39.72213 3.90169 26976 ft 442 kts 57°
2026-04-18 08:41 39.73779 3.93627 27254 ft 444 kts 57°
2026-04-18 08:41 39.75348 3.97098 27517 ft 447 kts 57°
2026-04-18 08:41 39.76920 4.00585 27773 ft 449 kts 57°
2026-04-18 08:42 39.78498 4.04097 28031 ft 451 kts 57°
2026-04-18 08:42 39.80084 4.07623 28290 ft 453 kts 57°
2026-04-18 08:42 39.81678 4.11165 28531 ft 454 kts 57°
2026-04-18 08:42 39.83278 4.14719 28769 ft 456 kts 57°
2026-04-18 08:43 39.84881 4.18288 29000 ft 458 kts 57°
2026-04-18 08:43 39.86487 4.21876 29217 ft 460 kts 57°
2026-04-18 08:43 39.88098 4.25479 29423 ft 461 kts 57°
2026-04-18 08:43 39.89720 4.29098 29635 ft 463 kts 57°
2026-04-18 08:44 39.91348 4.32723 29828 ft 465 kts 57°
2026-04-18 08:44 39.92981 4.36360 30036 ft 466 kts 57°
2026-04-18 08:44 39.94613 4.40005 30241 ft 466 kts 57°
2026-04-18 08:44 39.96244 4.43653 30520 ft 465 kts 57°
2026-04-18 08:45 39.97866 4.47296 30803 ft 464 kts 57°
2026-04-18 08:45 39.99480 4.50925 31079 ft 463 kts 57°
2026-04-18 08:45 40.01072 4.54506 31335 ft 462 kts 57°
2026-04-18 08:45 40.02677 4.58126 31592 ft 461 kts 57°
2026-04-18 08:46 40.04281 4.61750 31846 ft 460 kts 57°
2026-04-18 08:46 40.05882 4.65365 32094 ft 460 kts 57°
2026-04-18 08:46 40.07480 4.68970 32347 ft 459 kts 57°
2026-04-18 08:46 40.09078 4.72570 32604 ft 458 kts 57°
2026-04-18 08:47 40.10672 4.76167 32854 ft 457 kts 57°
2026-04-18 08:47 40.12260 4.79748 33096 ft 456 kts 57°
2026-04-18 08:47 40.13850 4.83338 33334 ft 455 kts 57°
2026-04-18 08:47 40.15435 4.86919 33569 ft 455 kts 57°
2026-04-18 08:48 40.17016 4.90498 33808 ft 454 kts 57°
2026-04-18 08:48 40.18589 4.94068 34047 ft 453 kts 57°
2026-04-18 08:48 40.20157 4.97637 34269 ft 452 kts 57°
2026-04-18 08:48 40.21723 5.01203 34483 ft 452 kts 57°
2026-04-18 08:49 40.23286 5.04768 34689 ft 452 kts 57°
2026-04-18 08:49 40.24848 5.08332 34891 ft 452 kts 57°
2026-04-18 08:49 40.26409 5.11897 35091 ft 451 kts 57°
2026-04-18 08:49 40.27945 5.15414 35278 ft 451 kts 57°
2026-04-18 08:50 40.29519 5.19026 35460 ft 451 kts 57°
2026-04-18 08:50 40.31073 5.22589 35643 ft 450 kts 57°
2026-04-18 08:50 40.32629 5.26150 35810 ft 450 kts 57°
2026-04-18 08:50 40.34182 5.29703 35979 ft 449 kts 57°
2026-04-18 08:51 40.35712 5.33216 36136 ft 449 kts 57°
2026-04-18 08:51 40.38799 5.40337 36181 ft 449 kts 57°
2026-04-18 08:52 40.41881 5.47467 36184 ft 449 kts 57°
2026-04-18 08:52 40.44962 5.54595 36171 ft 449 kts 57°
2026-04-18 08:53 40.48037 5.61729 36164 ft 448 kts 57°
2026-04-18 08:53 40.51107 5.68861 36165 ft 449 kts 57°
2026-04-18 08:54 40.54173 5.76004 36165 ft 449 kts 57°
2026-04-18 08:54 40.57234 5.83161 36166 ft 449 kts 57°
2026-04-18 08:55 40.60291 5.90321 36164 ft 449 kts 57°
2026-04-18 08:55 40.63340 5.97481 36163 ft 449 kts 57°
2026-04-18 08:56 40.66395 6.04669 36168 ft 449 kts 57°
2026-04-18 08:56 40.69438 6.11855 36168 ft 449 kts 57°
2026-04-18 08:57 40.73992 6.22644 36169 ft 448 kts 57°
2026-04-18 08:57 40.77004 6.29776 36172 ft 448 kts 57°
2026-04-18 08:58 40.80019 6.36952 36170 ft 447 kts 57°
2026-04-18 08:58 40.83040 6.44132 36168 ft 447 kts 57°
2026-04-18 08:59 40.86053 6.51320 36165 ft 448 kts 57°
2026-04-18 08:59 40.89061 6.58524 36162 ft 448 kts 57°
2026-04-18 09:00 40.92056 6.65732 36161 ft 447 kts 57°
2026-04-18 09:00 40.95051 6.72948 36160 ft 447 kts 57°
2026-04-18 09:01 40.98046 6.80160 36159 ft 447 kts 57°
2026-04-18 09:01 41.01127 6.87291 36162 ft 443 kts 48°
2026-04-18 09:02 41.03232 6.90194 36161 ft 434 kts 33°
2026-04-18 09:02 41.05783 6.92243 36160 ft 427 kts 21°
2026-04-18 09:02 41.11187 6.95508 36149 ft 429 kts 25°
2026-04-18 09:03 41.16401 6.99403 36147 ft 430 kts 26°
2026-04-18 09:03 41.21605 7.03328 36145 ft 430 kts 26°
2026-04-18 09:04 41.26806 7.07265 36148 ft 430 kts 26°
2026-04-18 09:04 41.32009 7.11213 36150 ft 430 kts 26°
2026-04-18 09:05 41.37171 7.15145 36151 ft 430 kts 26°
2026-04-18 09:05 41.42365 7.19100 36151 ft 430 kts 26°
2026-04-18 09:06 41.47561 7.23065 36152 ft 430 kts 26°
2026-04-18 09:06 41.52749 7.27043 36152 ft 430 kts 26°
2026-04-18 09:07 41.57932 7.31022 36151 ft 429 kts 26°
2026-04-18 09:07 41.63110 7.34998 36149 ft 429 kts 26°
2026-04-18 09:08 41.68289 7.38970 36148 ft 429 kts 26°
2026-04-18 09:08 41.73458 7.42951 36144 ft 429 kts 26°
2026-04-18 09:09 41.78622 7.46944 36143 ft 428 kts 26°
2026-04-18 09:09 41.83783 7.50941 36143 ft 429 kts 26°
2026-04-18 09:10 41.88952 7.54931 36139 ft 428 kts 26°
2026-04-18 09:10 41.94118 7.58931 36145 ft 429 kts 27°
2026-04-18 09:11 41.99273 7.62949 36145 ft 429 kts 27°
2026-04-18 09:11 42.04428 7.66973 36145 ft 428 kts 26°
2026-04-18 09:12 42.09588 7.70996 36146 ft 429 kts 27°
2026-04-18 09:12 42.14744 7.75031 36151 ft 429 kts 27°
2026-04-18 09:13 42.19898 7.79076 36157 ft 428 kts 27°
2026-04-18 09:13 42.25037 7.83115 36159 ft 428 kts 27°
2026-04-18 09:14 42.30180 7.87160 36162 ft 428 kts 27°
2026-04-18 09:14 42.35317 7.91203 36161 ft 427 kts 27°
2026-04-18 09:15 42.39587 7.94569 36162 ft 427 kts 27°
2026-04-18 09:15 42.45586 7.99303 36161 ft 427 kts 27°
2026-04-18 09:16 42.50719 8.03370 36157 ft 428 kts 27°
2026-04-18 09:16 42.55853 8.07454 36153 ft 427 kts 27°
2026-04-18 09:17 42.60975 8.11538 36150 ft 427 kts 27°
2026-04-18 09:17 42.66073 8.15601 36146 ft 428 kts 27°
2026-04-18 09:18 42.71201 8.19694 36148 ft 428 kts 27°
2026-04-18 09:18 42.76332 8.23793 36143 ft 428 kts 28°
2026-04-18 09:19 42.81463 8.27911 36144 ft 428 kts 28°
2026-04-18 09:19 42.86599 8.32033 36145 ft 429 kts 28°
2026-04-18 09:20 42.91735 8.36177 36144 ft 429 kts 28°
2026-04-18 09:20 42.96876 8.40328 36142 ft 429 kts 28°
2026-04-18 09:21 43.02018 8.44483 36143 ft 430 kts 28°
2026-04-18 09:21 43.07167 8.48639 36148 ft 430 kts 28°
2026-04-18 09:22 43.12317 8.52816 36147 ft 431 kts 28°
2026-04-18 09:22 43.16598 8.56296 36150 ft 431 kts 28°
2026-04-18 09:23 43.21753 8.60498 36152 ft 431 kts 28°
2026-04-18 09:23 43.26905 8.64708 36153 ft 431 kts 28°
2026-04-18 09:24 43.32058 8.68922 36151 ft 431 kts 28°
2026-04-18 09:24 43.37212 8.73140 36151 ft 431 kts 28°
2026-04-18 09:25 43.42364 8.77363 36146 ft 430 kts 28°
2026-04-18 09:25 43.47500 8.81610 36148 ft 431 kts 29°
2026-04-18 09:26 43.52582 8.85990 36149 ft 431 kts 30°
2026-04-18 09:26 43.57647 8.90431 36148 ft 431 kts 30°
2026-04-18 09:27 43.62714 8.94858 36145 ft 431 kts 30°
2026-04-18 09:27 43.67895 8.99036 36140 ft 430 kts 26°
2026-04-18 09:28 43.73230 9.02773 36142 ft 430 kts 24°
2026-04-18 09:28 43.78578 9.06471 36139 ft 430 kts 25°
2026-04-18 09:29 43.83886 9.10300 36134 ft 430 kts 26°
2026-04-18 09:29 43.89169 9.14174 36133 ft 429 kts 26°
2026-04-18 09:30 43.94453 9.18049 36142 ft 429 kts 26°
2026-04-18 09:30 43.99736 9.21906 36130 ft 429 kts 26°
2026-04-18 09:31 44.05021 9.25769 36138 ft 429 kts 26°
2026-04-18 09:31 44.10312 9.29647 36136 ft 430 kts 26°
2026-04-18 09:32 44.15604 9.33535 36133 ft 430 kts 26°
2026-04-18 09:32 44.20861 9.37408 36129 ft 430 kts 26°
2026-04-18 09:33 44.26158 9.41315 36128 ft 431 kts 26°
2026-04-18 09:33 44.31450 9.45231 36133 ft 431 kts 26°
2026-04-18 09:34 44.36745 9.49158 36132 ft 431 kts 26°
2026-04-18 09:34 44.42036 9.53087 36129 ft 431 kts 26°
2026-04-18 09:35 44.47330 9.57022 36132 ft 431 kts 26°
2026-04-18 09:35 44.52623 9.60970 36125 ft 431 kts 26°
2026-04-18 09:36 44.57914 9.64925 36130 ft 431 kts 26°
2026-04-18 09:36 44.63204 9.68879 36130 ft 431 kts 26°
2026-04-18 09:37 44.68494 9.72840 36132 ft 431 kts 26°
2026-04-18 09:37 44.73784 9.76816 36129 ft 431 kts 26°
2026-04-18 09:38 44.79071 9.80807 36131 ft 431 kts 26°
2026-04-18 09:38 44.84364 9.84801 36125 ft 432 kts 26°
2026-04-18 09:39 44.89659 9.88806 36123 ft 432 kts 26°
2026-04-18 09:39 44.94962 9.92818 36133 ft 433 kts 26°
2026-04-18 09:40 45.00265 9.96843 36127 ft 433 kts 26°
2026-04-18 09:40 45.05569 10.00884 36129 ft 434 kts 26°
2026-04-18 09:41 45.10880 10.04942 36136 ft 434 kts 26°
2026-04-18 09:41 45.16186 10.09011 36137 ft 433 kts 26°
2026-04-18 09:42 45.21487 10.13067 36139 ft 433 kts 26°
2026-04-18 09:42 45.26796 10.17133 36131 ft 434 kts 26°
2026-04-18 09:43 45.32064 10.21182 36134 ft 434 kts 26°
2026-04-18 09:43 45.37384 10.25281 36124 ft 435 kts 26°
2026-04-18 09:44 45.42702 10.29387 36121 ft 435 kts 26°
2026-04-18 09:44 45.48018 10.33514 36130 ft 435 kts 26°
2026-04-18 09:45 45.53336 10.37648 36145 ft 436 kts 26°
2026-04-18 09:45 45.58661 10.41785 36148 ft 436 kts 26°
2026-04-18 09:46 45.63991 10.45933 36155 ft 437 kts 26°
2026-04-18 09:46 45.69328 10.50102 36162 ft 437 kts 26°
2026-04-18 09:47 45.74664 10.54285 36171 ft 438 kts 26°
2026-04-18 09:47 45.79999 10.58469 36177 ft 437 kts 26°
2026-04-18 09:48 45.85323 10.62660 36188 ft 436 kts 26°
2026-04-18 09:48 45.90643 10.66856 36198 ft 436 kts 26°
2026-04-18 09:49 45.96009 10.70934 36212 ft 436 kts 23°
2026-04-18 09:49 46.01535 10.74491 36226 ft 435 kts 21°
2026-04-18 09:50 46.07107 10.77896 36228 ft 435 kts 21°
2026-04-18 09:50 46.12654 10.81402 36236 ft 436 kts 21°
2026-04-18 09:51 46.18189 10.85003 36251 ft 436 kts 22°
2026-04-18 09:51 46.23716 10.88612 36250 ft 436 kts 22°
2026-04-18 09:52 46.29253 10.92224 36252 ft 436 kts 22°
2026-04-18 09:52 46.34789 10.95834 36252 ft 437 kts 22°
2026-04-18 09:53 46.40290 10.99435 36246 ft 437 kts 22°
2026-04-18 09:53 46.45822 11.03077 36236 ft 437 kts 22°
2026-04-18 09:54 46.51362 11.06710 36226 ft 437 kts 22°
2026-04-18 09:54 46.56898 11.10345 36218 ft 436 kts 22°
2026-04-18 09:55 46.62426 11.13990 36210 ft 436 kts 22°
2026-04-18 09:55 46.67958 11.17649 36207 ft 437 kts 22°
2026-04-18 09:56 46.73485 11.21319 36205 ft 437 kts 22°
2026-04-18 09:56 46.79019 11.24992 36206 ft 437 kts 22°
2026-04-18 09:57 46.84553 11.28675 36205 ft 437 kts 22°
2026-04-18 09:57 46.90077 11.32377 36202 ft 437 kts 22°
2026-04-18 09:58 46.95622 11.35994 36196 ft 435 kts 17°
2026-04-18 09:58 47.01502 11.37632 36190 ft 429 kts 359°
2026-04-18 09:59 47.07464 11.37570 36187 ft 428 kts 358°
2026-04-18 10:00 47.16416 11.37488 36192 ft 429 kts 358°
2026-04-18 10:00 47.22386 11.37426 36191 ft 429 kts 357°
2026-04-18 10:01 47.28362 11.37362 36185 ft 429 kts 357°
2026-04-18 10:01 47.34335 11.37314 36180 ft 430 kts 357°
2026-04-18 10:02 47.40325 11.37261 36185 ft 430 kts 357°
2026-04-18 10:02 47.46307 11.37202 36191 ft 430 kts 357°
2026-04-18 10:03 47.52259 11.37150 36194 ft 431 kts 357°
2026-04-18 10:03 47.58252 11.37092 36199 ft 431 kts 357°
2026-04-18 10:04 47.64242 11.37032 36203 ft 431 kts 357°
2026-04-18 10:04 47.70235 11.36971 36207 ft 430 kts 357°
2026-04-18 10:05 47.76227 11.36915 36209 ft 430 kts 357°
2026-04-18 10:05 47.82215 11.36863 36208 ft 430 kts 357°
2026-04-18 10:06 47.88178 11.36441 36211 ft 428 kts 352°
2026-04-18 10:06 47.94115 11.35552 36213 ft 429 kts 352°
2026-04-18 10:07 48.00050 11.34679 36214 ft 429 kts 352°
2026-04-18 10:07 48.05989 11.33800 36213 ft 429 kts 352°
2026-04-18 10:08 48.11932 11.32916 36210 ft 429 kts 352°
2026-04-18 10:08 48.17882 11.32019 36212 ft 430 kts 352°
2026-04-18 10:09 48.23832 11.31112 36214 ft 430 kts 352°
2026-04-18 10:09 48.29795 11.30214 36214 ft 431 kts 352°
2026-04-18 10:10 48.34750 11.29478 36213 ft 431 kts 352°
2026-04-18 10:10 48.41684 11.28433 36209 ft 430 kts 352°
2026-04-18 10:11 48.47646 11.27540 36203 ft 431 kts 352°
2026-04-18 10:11 48.52640 11.26792 36198 ft 431 kts 352°
2026-04-18 10:12 48.58602 11.25889 36188 ft 431 kts 352°
2026-04-18 10:12 48.64569 11.24980 36174 ft 431 kts 352°
2026-04-18 10:12 48.67557 11.24531 35647 ft 430 kts 352°
2026-04-18 10:13 48.70535 11.24082 34890 ft 431 kts 351°
2026-04-18 10:13 48.73526 11.23622 34119 ft 433 kts 351°
2026-04-18 10:13 48.76529 11.23159 33371 ft 434 kts 351°
2026-04-18 10:13 48.79536 11.22656 32980 ft 435 kts 348°
2026-04-18 10:14 48.82464 11.21571 32610 ft 433 kts 338°
2026-04-18 10:14 48.85220 11.19759 32238 ft 431 kts 329°
2026-04-18 10:14 48.87721 11.17293 31863 ft 427 kts 320°
2026-04-18 10:14 48.89945 11.14330 31485 ft 424 kts 316°
2026-04-18 10:15 48.92116 11.11307 31111 ft 422 kts 316°
2026-04-18 10:15 48.94276 11.08298 30741 ft 420 kts 316°
2026-04-18 10:15 48.96422 11.05302 30358 ft 418 kts 316°
2026-04-18 10:15 48.98558 11.02314 29984 ft 416 kts 316°
2026-04-18 10:16 49.00684 10.99336 29608 ft 414 kts 316°
2026-04-18 10:16 49.02793 10.96381 29232 ft 411 kts 316°
2026-04-18 10:16 49.04888 10.93438 28857 ft 409 kts 316°
2026-04-18 10:16 49.06976 10.90494 28479 ft 407 kts 316°
2026-04-18 10:17 49.09047 10.87572 28105 ft 405 kts 316°
2026-04-18 10:17 49.11108 10.84661 27727 ft 402 kts 316°
2026-04-18 10:17 49.13158 10.81763 27351 ft 401 kts 316°
2026-04-18 10:17 49.15198 10.78875 26977 ft 399 kts 316°
2026-04-18 10:18 49.17221 10.76001 26611 ft 397 kts 316°
2026-04-18 10:18 49.19240 10.73129 26223 ft 395 kts 316°
2026-04-18 10:18 49.21226 10.70216 25843 ft 392 kts 314°
2026-04-18 10:18 49.23127 10.67279 25470 ft 390 kts 313°
2026-04-18 10:19 49.25006 10.64288 25097 ft 388 kts 313°
2026-04-18 10:19 49.26859 10.61303 24743 ft 386 kts 313°
2026-04-18 10:19 49.28706 10.58327 24366 ft 384 kts 313°
2026-04-18 10:19 49.30548 10.55374 24175 ft 383 kts 313°
2026-04-18 10:20 49.32396 10.52428 24201 ft 383 kts 313°
2026-04-18 10:20 49.34251 10.49487 24202 ft 384 kts 313°
2026-04-18 10:20 49.36072 10.46496 24188 ft 383 kts 308°
2026-04-18 10:20 49.37663 10.43199 23788 ft 384 kts 305°
2026-04-18 10:21 49.39197 10.39875 23377 ft 380 kts 304°
2026-04-18 10:21 49.40707 10.36565 22992 ft 377 kts 304°
2026-04-18 10:21 49.42202 10.33270 22602 ft 375 kts 304°
2026-04-18 10:21 49.43685 10.29998 22202 ft 373 kts 304°
2026-04-18 10:22 49.45158 10.26743 21827 ft 370 kts 304°
2026-04-18 10:22 49.46626 10.23503 21452 ft 368 kts 304°
2026-04-18 10:22 49.48088 10.20281 21079 ft 366 kts 304°
2026-04-18 10:22 49.49540 10.17079 20711 ft 364 kts 304°
2026-04-18 10:23 49.50986 10.13882 20340 ft 362 kts 304°
2026-04-18 10:23 49.52419 10.10711 19991 ft 359 kts 304°
2026-04-18 10:23 49.53813 10.07627 19854 ft 342 kts 304°
2026-04-18 10:23 49.54118 10.06953 19827 ft 338 kts 304°
2026-04-18 10:24 49.55422 10.04064 19649 ft 323 kts 304°
2026-04-18 10:24 49.56689 10.01249 19226 ft 317 kts 303°
2026-04-18 10:24 49.57935 9.98472 18731 ft 314 kts 303°
2026-04-18 10:24 49.59173 9.95711 18251 ft 313 kts 303°
2026-04-18 10:25 49.60409 9.92961 17910 ft 311 kts 304°
2026-04-18 10:25 49.61640 9.90220 17593 ft 310 kts 304°
2026-04-18 10:25 49.62865 9.87491 17276 ft 309 kts 304°
2026-04-18 10:25 49.64090 9.84770 16951 ft 308 kts 304°
2026-04-18 10:26 49.65309 9.82059 16644 ft 307 kts 304°
2026-04-18 10:26 49.66521 9.79356 16329 ft 306 kts 303°
2026-04-18 10:26 49.67723 9.76664 16017 ft 305 kts 303°
2026-04-18 10:26 49.68921 9.73974 15706 ft 303 kts 303°
2026-04-18 10:27 49.70111 9.71298 15394 ft 302 kts 303°
2026-04-18 10:27 49.71295 9.68629 15087 ft 301 kts 303°
2026-04-18 10:27 49.72472 9.65972 14782 ft 299 kts 303°
2026-04-18 10:27 49.73647 9.63321 14468 ft 298 kts 303°
2026-04-18 10:28 49.74817 9.60680 14167 ft 297 kts 303°
2026-04-18 10:28 49.75984 9.58054 13864 ft 296 kts 303°
2026-04-18 10:28 49.77145 9.55436 13558 ft 295 kts 303°
2026-04-18 10:28 49.78302 9.52819 13258 ft 294 kts 303°
2026-04-18 10:29 49.79570 9.50365 12957 ft 292 kts 319°
2026-04-18 10:29 49.81238 9.48569 12649 ft 293 kts 327°
2026-04-18 10:29 49.82980 9.46925 12265 ft 294 kts 327°
2026-04-18 10:29 49.84741 9.45284 11870 ft 295 kts 328°
2026-04-18 10:30 49.86501 9.43648 11480 ft 295 kts 328°
2026-04-18 10:30 49.88257 9.42015 11088 ft 294 kts 328°
2026-04-18 10:30 49.90011 9.40384 10697 ft 294 kts 328°
2026-04-18 10:30 49.91762 9.38756 10303 ft 293 kts 328°
2026-04-18 10:31 49.93508 9.37133 9918 ft 292 kts 328°
2026-04-18 10:31 49.95247 9.35515 9533 ft 291 kts 328°
2026-04-18 10:31 49.96981 9.33902 9142 ft 290 kts 328°
2026-04-18 10:31 49.98705 9.32297 8759 ft 288 kts 328°
2026-04-18 10:32 50.00419 9.30701 8376 ft 287 kts 328°
2026-04-18 10:32 50.02126 9.29109 7999 ft 286 kts 327°
2026-04-18 10:32 50.03831 9.27517 7622 ft 285 kts 328°
2026-04-18 10:32 50.05529 9.25932 7239 ft 284 kts 328°
2026-04-18 10:33 50.07219 9.24354 6864 ft 283 kts 328°
2026-04-18 10:33 50.08899 9.22785 6486 ft 281 kts 328°
2026-04-18 10:33 50.10550 9.21242 6117 ft 279 kts 327°
2026-04-18 10:33 50.12045 9.19319 5740 ft 275 kts 307°
2026-04-18 10:34 50.13169 9.16923 5379 ft 272 kts 303°
2026-04-18 10:34 50.14232 9.14502 5030 ft 270 kts 303°
2026-04-18 10:34 50.15124 9.11953 4672 ft 267 kts 288°
2026-04-18 10:34 50.15467 9.09141 4320 ft 263 kts 270°
2026-04-18 10:35 50.15223 9.06340 4041 ft 260 kts 252°
2026-04-18 10:35 50.14617 9.03721 3999 ft 250 kts 249°
2026-04-18 10:35 50.14047 9.01256 4004 ft 236 kts 249°
2026-04-18 10:35 50.13495 8.98883 4019 ft 231 kts 249°
2026-04-18 10:36 50.12943 8.96528 4021 ft 231 kts 249°
2026-04-18 10:36 50.12402 8.94215 4004 ft 231 kts 249°
2026-04-18 10:36 50.11846 8.91842 4018 ft 231 kts 249°
2026-04-18 10:36 50.11295 8.89496 4007 ft 230 kts 249°
2026-04-18 10:37 50.10750 8.87172 4004 ft 222 kts 249°
2026-04-18 10:37 50.10231 8.84961 3829 ft 215 kts 249°
2026-04-18 10:37 50.09721 8.82795 3570 ft 212 kts 249°
2026-04-18 10:37 50.09214 8.80645 3301 ft 211 kts 249°
2026-04-18 10:38 50.08707 8.78496 3015 ft 211 kts 249°
2026-04-18 10:38 50.08209 8.76391 2739 ft 204 kts 249°
2026-04-18 10:38 50.07734 8.74379 2496 ft 192 kts 249°
2026-04-18 10:38 50.07283 8.72470 2224 ft 183 kts 249°
2026-04-18 10:39 50.06854 8.70660 1984 ft 173 kts 249°
2026-04-18 10:39 50.06449 8.68948 1781 ft 161 kts 249°
2026-04-18 10:39 50.06075 8.67371 1566 ft 152 kts 249°
2026-04-18 10:39 50.05715 8.65856 1362 ft 147 kts 250°
2026-04-18 10:40 50.05360 8.64363 1169 ft 146 kts 251°
2026-04-18 10:40 50.05005 8.62880 978 ft 147 kts 250°
2026-04-18 10:40 50.04651 8.61406 785 ft 145 kts 252°
2026-04-18 10:40 50.04308 8.59945 574 ft 143 kts 253°
2026-04-18 10:41 50.03967 8.58493 403 ft 143 kts 252°
2026-04-18 10:41 50.03617 8.57017 486 ft 158 kts 251°
2026-04-18 10:41 50.03178 8.55267 1012 ft 181 kts 250°
2026-04-18 10:41 50.02716 8.53443 1899 ft 181 kts 250°
2026-04-18 10:42 50.02240 8.51551 2381 ft 198 kts 250°
2026-04-18 10:42 50.01605 8.49547 2749 ft 215 kts 228°
2026-04-18 10:42 50.00348 8.48338 3421 ft 217 kts 194°
2026-04-18 10:42 49.98846 8.48379 4097 ft 219 kts 168°
2026-04-18 10:43 49.97363 8.48981 4811 ft 220 kts 165°
2026-04-18 10:43 49.95974 8.49960 5492 ft 223 kts 141°
2026-04-18 10:43 49.94967 8.51805 6156 ft 225 kts 126°
2026-04-18 10:43 49.94157 8.53892 6762 ft 228 kts 110°
2026-04-18 10:44 49.94031 8.56356 7261 ft 240 kts 81°
2026-04-18 10:44 49.94434 8.59000 7611 ft 264 kts 75°
2026-04-18 10:44 49.94969 8.61857 8056 ft 285 kts 74°
2026-04-18 10:44 49.95537 8.64831 8174 ft 289 kts 74°
2026-04-18 10:45 49.96108 8.67820 8193 ft 289 kts 74°
2026-04-18 10:45 49.96682 8.70818 8191 ft 289 kts 74°
2026-04-18 10:45 49.97253 8.73804 8197 ft 289 kts 74°
2026-04-18 10:45 49.97824 8.76798 8200 ft 289 kts 74°
2026-04-18 10:46 49.98397 8.79797 8195 ft 289 kts 74°
2026-04-18 10:46 49.98994 8.82779 8187 ft 289 kts 71°
2026-04-18 10:46 49.99706 8.85720 7782 ft 292 kts 69°
2026-04-18 10:46 50.00434 8.88615 7302 ft 283 kts 69°
2026-04-18 10:47 50.01144 8.91420 6811 ft 275 kts 69°
2026-04-18 10:47 50.01833 8.94139 6313 ft 269 kts 69°
2026-04-18 10:47 50.02516 8.96831 5814 ft 263 kts 69°
2026-04-18 10:47 50.03199 8.99426 5313 ft 256 kts 63°
2026-04-18 10:48 50.04338 9.01426 4938 ft 246 kts 31°
2026-04-18 10:48 50.05951 9.02216 4566 ft 246 kts 359°
2026-04-18 10:48 50.07610 9.01680 4183 ft 244 kts 338°
2026-04-18 10:48 50.09154 9.00639 3997 ft 237 kts 333°
2026-04-18 10:49 50.10434 8.99102 3998 ft 233 kts 309°
2026-04-18 10:49 50.11380 8.97104 4008 ft 225 kts 297°
2026-04-18 10:49 50.11900 8.94845 4015 ft 221 kts 278°
2026-04-18 10:49 50.11910 8.92465 4008 ft 220 kts 259°
2026-04-18 10:50 50.11638 8.90949 4015 ft 220 kts 248°
2026-04-18 10:50 50.11104 8.88693 4010 ft 215 kts 249°
2026-04-18 10:50 50.10609 8.86577 3970 ft 202 kts 249°
2026-04-18 10:50 50.10135 8.84555 3792 ft 196 kts 249°
2026-04-18 10:51 50.09678 8.82618 3577 ft 190 kts 249°
2026-04-18 10:51 50.09220 8.80671 3309 ft 189 kts 249°
2026-04-18 10:51 50.08769 8.78760 3048 ft 187 kts 249°
2026-04-18 10:51 50.08320 8.76860 2801 ft 187 kts 249°
2026-04-18 10:52 50.07871 8.74960 2556 ft 187 kts 249°
2026-04-18 10:52 50.07430 8.73091 2310 ft 180 kts 249°
2026-04-18 10:52 50.07009 8.71313 2066 ft 169 kts 249°
2026-04-18 10:52 50.06618 8.69663 1864 ft 156 kts 249°
2026-04-18 10:53 50.06255 8.68128 1674 ft 149 kts 248°
2026-04-18 10:53 50.05899 8.66627 1457 ft 147 kts 252°
2026-04-18 10:53 50.05548 8.65145 1275 ft 145 kts 252°
2026-04-18 10:53 50.05203 8.63668 1078 ft 146 kts 252°
2026-04-18 10:54 50.04848 8.62198 878 ft 144 kts 250°
2026-04-18 10:54 50.04500 8.60741 695 ft 143 kts 253°
2026-04-18 10:54 50.04156 8.59289 502 ft 143 kts 251°
2026-04-18 10:54 50.03814 8.57859 368 ft 135 kts 251°
2026-04-18 10:55 50.03531 8.56662 356 ft 100 kts 250°
2026-04-18 10:55 50.03351 8.55915 346 ft 43 kts 249°
2026-04-18 10:55 50.03311 8.55548 346 ft 34 kts 274°
2026-04-18 10:55 50.03345 8.55209 350 ft 24 kts 279°
2026-04-18 10:56 50.03364 8.54950 342 ft 25 kts 262°
2026-04-18 10:56 50.03312 8.54719 339 ft 23 kts 249°
2026-04-18 10:56 50.03276 8.54527 334 ft 12 kts 284°
2026-04-18 10:56 50.03338 8.54466 337 ft 10 kts 339°
2026-04-18 10:57 50.03367 8.54449 336 ft 0 kts 339°
2026-04-18 10:58 50.03374 8.54445 340 ft 5 kts 340°
2026-04-18 10:59 50.03435 8.54410 343 ft 13 kts 339°
2026-04-18 10:59 50.03546 8.54346 342 ft 20 kts 339°
2026-04-18 10:59 50.03662 8.54344 342 ft 17 kts 55°
2026-04-18 10:59 50.03706 8.54517 343 ft 17 kts 69°
2026-04-18 11:00 50.03745 8.54683 354 ft 16 kts 69°
2026-04-18 11:00 50.03786 8.54856 351 ft 18 kts 70°
2026-04-18 11:00 50.03833 8.55051 354 ft 20 kts 70°
2026-04-18 11:00 50.03885 8.55265 354 ft 22 kts 70°
2026-04-18 11:01 50.03940 8.55497 353 ft 24 kts 69°
2026-04-18 11:01 50.03999 8.55747 356 ft 25 kts 70°
2026-04-18 11:01 50.04052 8.55948 355 ft 14 kts 52°
2026-04-18 11:02 50.04215 8.55852 353 ft 13 kts 270°
2026-04-18 11:02 50.04185 8.55716 356 ft 7 kts 248°
2026-04-18 11:02 50.04151 8.55721 361 ft 7 kts 159°
2026-04-18 11:02 50.04110 8.55745 359 ft 4 kts 159°
2026-04-18 11:03 50.04098 8.55752 361 ft 0 kts 159°
2026-04-18 11:03 50.04097 8.55752 352 ft 0 kts 159°